Appleton, MN

5:00 AM CST on January 19, 2017 (GMT -0600)
Appleton Municipal

Weather History for KAQP - May, 2015

Change the Weather History Date:

Saturday, May 16, 2015

  Actual Average Record
Temperature  
Mean Temperature 63 °F -  
Max Temperature 69 °F 65 °F 86 °F (2013)
Min Temperature 57 °F 43 °F 28 °F (2014)
Degree Days  
Heating Degree Days 2    
Growing Degree Days 13 (Base 50)    
Moisture  
Dew Point 57 °F    
Average Humidity 86    
Maximum Humidity 94    
Minimum Humidity 82    
Precipitation  
Precipitation 1.20 in - - ()
Sea Level Pressure  
Sea Level Pressure 29.78 in    
Wind  
Wind Speed 11 mph (ESE)    
Max Wind Speed 25 mph    
Max Gust Speed 31 mph    
Visibility 8 miles    
Events Rain , Thunderstorm    
Averages and records for this station are not official NWS values.
T = Trace of Precipitation, MM = Missing Value Source: NWS Daily Summary

Daily Weather History Graph

Daily Weather History Graph

Search for Another Location

Airport or City:

Trip Planner

Search our weather history database for the weather conditions in past years. The results will help you decide how hot, cold, wet, or windy it might be!

Date:

Astronomy

May. 16, 2015 Rise Set
Actual Time 5:53 AM CDT 8:48 PM CDT
Civil Twilight 5:18 AM CDT 9:22 PM CDT
Nautical Twilight 4:34 AM CDT 10:06 PM CDT
Astronomical Twilight 3:43 AM CDT 10:59 PM CDT
Moon 5:09 AM CDT (5/16) 7:11 PM CDT (5/16)
Length of Visible Light 16h 03m
Length of Day
14h 54m
Waning Crescent, 3% of the Moon is Illuminated
May 16
Waning Crescent
May 17
New
May 25
First Quarter
Jun 2
Full
Jun 9
Last Quarter

Hourly Weather History & Observations

Time (CDT) Temp. Dew Point Humidity Pressure Visibility Wind Dir Wind Speed Gust Speed Precip Events Conditions
12:14 AM 57.2 °F 51.8 °F 82% 29.93 in 10.0 mi East 8.1 mph - N/A   Scattered Clouds
12:35 AM 57.2 °F 51.8 °F 82% 29.94 in 10.0 mi ESE 5.8 mph - N/A   Clear
12:54 AM 57.2 °F 51.8 °F 82% 29.93 in 10.0 mi ESE 6.9 mph - N/A   Mostly Cloudy
1:15 AM 57.2 °F 51.8 °F 82% 29.92 in 10.0 mi ESE 5.8 mph - N/A   Overcast
1:34 AM 57.2 °F 51.8 °F 82% 29.91 in 10.0 mi East 8.1 mph - N/A   Overcast
1:54 AM 57.2 °F 51.8 °F 82% 29.90 in 10.0 mi East 9.2 mph - N/A   Overcast
2:15 AM 57.2 °F 51.8 °F 82% 29.88 in 10.0 mi ESE 10.4 mph - N/A   Overcast
2:35 AM 57.2 °F 51.8 °F 82% 29.87 in 10.0 mi East 10.4 mph - N/A   Overcast
2:55 AM 57.2 °F 51.8 °F 82% 29.87 in 10.0 mi East 8.1 mph - N/A   Overcast
3:15 AM 57.2 °F 51.8 °F 82% 29.86 in 10.0 mi East 11.5 mph - N/A   Overcast
3:35 AM 57.2 °F 51.8 °F 82% 29.85 in 10.0 mi East 11.5 mph - N/A   Mostly Cloudy
3:54 AM 57.2 °F 51.8 °F 82% 29.85 in 10.0 mi East 11.5 mph - N/A   Overcast
4:14 AM 57.2 °F 51.8 °F 82% 29.83 in 10.0 mi East 12.7 mph - N/A   Overcast
4:35 AM 57.2 °F 51.8 °F 82% 29.84 in 10.0 mi East 11.5 mph - N/A   Mostly Cloudy
4:54 AM 57.2 °F 51.8 °F 82% 29.85 in 10.0 mi East 11.5 mph - N/A   Mostly Cloudy
5:15 AM 57.2 °F 51.8 °F 82% 29.84 in 10.0 mi East 12.7 mph - N/A   Overcast
5:34 AM 57.2 °F 51.8 °F 82% 29.85 in 10.0 mi East 10.4 mph - N/A   Overcast
5:54 AM 57.2 °F 51.8 °F 82% 29.86 in 10.0 mi East 12.7 mph 17.3 mph N/A   Overcast
6:14 AM 57.2 °F 51.8 °F 82% 29.85 in 10.0 mi East 12.7 mph - N/A   Overcast
6:35 AM 57.2 °F 51.8 °F 82% 29.85 in 10.0 mi East 15.0 mph - N/A   Overcast
6:54 AM 57.2 °F 53.6 °F 88% 29.84 in 10.0 mi East 12.7 mph - N/A   Mostly Cloudy
7:15 AM 57.2 °F 51.8 °F 82% 29.83 in 10.0 mi ESE 12.7 mph - N/A   Overcast
7:35 AM 59.0 °F 53.6 °F 82% 29.82 in 10.0 mi ESE 13.8 mph - N/A   Overcast
7:54 AM 59.0 °F 53.6 °F 82% 29.80 in 10.0 mi ESE 21.9 mph 25.3 mph N/A Rain Light Rain
8:14 AM 57.2 °F 53.6 °F 88% 29.78 in 10.0 mi ESE 24.2 mph 31.1 mph N/A Rain Light Rain
8:35 AM 57.2 °F 53.6 °F 88% 29.80 in 10.0 mi ESE 19.6 mph 27.6 mph 0.01 in Rain Light Rain
8:55 AM 57.2 °F 53.6 °F 88% 29.81 in 7.0 mi ESE 16.1 mph 20.7 mph 0.01 in Rain Light Rain
9:15 AM 57.2 °F 55.4 °F 94% 29.78 in 10.0 mi ESE 19.6 mph 27.6 mph 0.01 in Rain Light Rain
9:35 AM 59.0 °F 55.4 °F 88% 29.76 in 7.0 mi ESE 18.4 mph 26.5 mph 0.02 in Rain , Thunderstorm Rain
9:54 AM 59.0 °F 55.4 °F 88% 29.76 in 7.0 mi SE 19.6 mph 24.2 mph 0.03 in Rain Light Rain
10:14 AM 60.8 °F 55.4 °F 82% 29.76 in 7.0 mi SE 20.7 mph 27.6 mph 0.01 in Rain Light Rain
10:34 AM 60.8 °F 57.2 °F 88% 29.79 in 7.0 mi SSE 16.1 mph 20.7 mph 0.01 in   Mostly Cloudy
10:54 AM 60.8 °F 57.2 °F 88% 29.81 in 7.0 mi SSE 5.8 mph 17.3 mph 0.01 in Thunderstorm Overcast
11:15 AM 60.8 °F 57.2 °F 88% 29.81 in 5.0 mi SE 9.2 mph - N/A Rain Light Rain
11:34 AM 60.8 °F 57.2 °F 88% 29.81 in 7.0 mi ESE 8.1 mph - 0.03 in Rain , Thunderstorm Rain
11:54 AM 60.8 °F 57.2 °F 88% 29.80 in 7.0 mi East 8.1 mph - 0.05 in Rain Light Rain
12:14 PM 60.8 °F 57.2 °F 88% 29.80 in 5.0 mi ESE 11.5 mph - 0.02 in Rain , Thunderstorm Rain
12:34 PM 60.8 °F 57.2 °F 88% 29.78 in 10.0 mi ESE 12.7 mph 17.3 mph 0.13 in Rain , Thunderstorm Thunderstorms and Rain
12:54 PM 60.8 °F 57.2 °F 88% 29.76 in 5.0 mi ESE 11.5 mph - 0.17 in Rain , Thunderstorm Heavy Thunderstorms and Rain
1:14 PM 60.8 °F 59.0 °F 94% 29.76 in 10.0 mi East 12.7 mph 16.1 mph 0.04 in Rain , Thunderstorm Light Thunderstorms and Rain
1:35 PM 62.6 °F 59.0 °F 88% 29.75 in 3.0 mi ESE 12.7 mph 19.6 mph 0.19 in Rain , Thunderstorm Heavy Thunderstorms and Rain
1:54 PM 62.6 °F 59.0 °F 88% 29.76 in 4.0 mi East 12.7 mph - 0.21 in Rain , Thunderstorm Light Thunderstorms and Rain
2:14 PM 62.6 °F 60.8 °F 94% 29.75 in 5.0 mi ESE 11.5 mph - 0.01 in Thunderstorm Unknown
2:35 PM 64.4 °F 60.8 °F 88% 29.74 in 4.0 mi East 12.7 mph - 0.01 in   Overcast
2:54 PM 66.2 °F 62.6 °F 88% 29.73 in 4.0 mi East 12.7 mph - 0.01 in   Overcast
3:14 PM 68.0 °F 64.4 °F 88% 29.72 in 5.0 mi East 16.1 mph 20.7 mph N/A   Overcast
3:35 PM 69.8 °F 66.2 °F 88% 29.71 in 7.0 mi East 12.7 mph - N/A   Mostly Cloudy
3:54 PM 69.8 °F 64.4 °F 83% 29.70 in 5.0 mi East 15.0 mph - N/A   Mostly Cloudy
4:15 PM 69.8 °F 64.4 °F 83% 29.69 in 10.0 mi ESE 11.5 mph - N/A Thunderstorm Scattered Clouds
4:34 PM 69.8 °F 64.4 °F 83% 29.68 in 5.0 mi East 12.7 mph - N/A Rain , Thunderstorm Light Thunderstorms and Rain
4:56 PM - - N/A% 29.68 in - ESE 18.4 mph 23.0 mph N/A   Unknown
5:14 PM 68.0 °F 64.4 °F 88% 29.68 in 10.0 mi ESE 15.0 mph 21.9 mph N/A Thunderstorm Unknown
5:34 PM 66.2 °F 60.8 °F 83% 29.70 in 2.5 mi WNW 25.3 mph 29.9 mph 0.26 in Rain , Thunderstorm Heavy Thunderstorms and Rain
5:54 PM 66.2 °F 62.6 °F 88% 29.70 in 5.0 mi East 8.1 mph - 0.61 in Rain , Thunderstorm Light Thunderstorms and Rain
6:15 PM 66.2 °F 62.6 °F 88% 29.70 in 7.0 mi East 6.9 mph - 0.10 in Rain , Thunderstorm Heavy Thunderstorms and Rain
6:34 PM 66.2 °F 62.6 °F 88% 29.69 in 10.0 mi NE 10.4 mph - 0.10 in Thunderstorm Overcast
6:54 PM 66.2 °F 62.6 °F 88% 29.69 in 10.0 mi ENE 12.7 mph 19.6 mph 0.10 in Rain , Thunderstorm Light Thunderstorms and Rain
7:14 PM 66.2 °F 62.6 °F 88% 29.68 in 10.0 mi ENE 10.4 mph 16.1 mph N/A Rain , Thunderstorm Light Thunderstorms and Rain
7:34 PM 66.2 °F 62.6 °F 88% 29.69 in 10.0 mi ENE 10.4 mph - N/A   Scattered Clouds
7:55 PM 66.2 °F 62.6 °F 88% 29.69 in 10.0 mi East 15.0 mph 18.4 mph N/A Thunderstorm Mostly Cloudy
8:14 PM 66.2 °F 62.6 °F 88% 29.68 in 10.0 mi ENE 16.1 mph - N/A Thunderstorm Mostly Cloudy
8:54 PM 64.4 °F 62.6 °F 94% 29.68 in 10.0 mi East 11.5 mph - N/A   Clear
9:15 PM 64.4 °F 60.8 °F 88% 29.69 in 10.0 mi East 10.4 mph - N/A   Clear
9:35 PM 64.4 °F 60.8 °F 88% 29.69 in 10.0 mi East 10.4 mph - N/A   Clear
9:54 PM 64.4 °F 62.6 °F 94% 29.70 in 10.0 mi East 13.8 mph 18.4 mph N/A   Clear
10:14 PM 64.4 °F 60.8 °F 88% 29.71 in 10.0 mi East 11.5 mph - N/A   Scattered Clouds
10:54 PM 64.4 °F 60.8 °F 88% 29.71 in 10.0 mi ESE 8.1 mph - N/A   Clear
11:15 PM 64.4 °F 60.8 °F 88% 29.70 in 10.0 mi East 9.2 mph - N/A   Clear
11:35 PM 64.4 °F 60.8 °F 88% 29.70 in 10.0 mi East 9.2 mph - N/A   Clear
11:54 PM 64.4 °F 62.6 °F 94% 29.70 in 10.0 mi ESE 11.5 mph - N/A   Scattered Clouds